Chicago Midway International Airport (MDW)


Airport Diagram
Current Weather/Forecast (VFR Conditions)
METAR KMDW 271353Z 21009G19KT 10SM FEW085 BKN120 BKN150 BKN250 M04/M12 A3009 RMK AO2 SLP209 T10391122 $
TAF KMDW 271120Z 2712/2818 21012G20KT P6SM SCT040 BKN080 WS015/24045KT FM271500 25013G21KT P6SM BKN035 FM272000 29010G16KT P6SM -SHSN SCT020 BKN030 FM272300 34012G20KT P6SM -SHSN BKN020 FM280300 34011G18KT P6SM SCT020 BKN035 FM281000 35008KT P6SM BKN035 PROB30 2811/2815 2SM -SN BKN015

All Charts
General
Chart Name Download
AIRPORT DIAGRAM
TAKEOFF MINIMUMS
ALTERNATE MINIMUMS
HOT SPOT

Departures
Chart Name Download
CICERO TWO
MIDWAY SIX

Arrivals
Chart Name Download
ENDEE SIX (RNAV)
ENDEE SIX (RNAV), CONT.1
FISSK FOUR (RNAV)
GOSHEN SEVEN
MOTIF SIX
MOTIF SIX, CONT.1
PANGG THREE (RNAV)

Approaches
Chart Name Download
ILS OR LOC RWY 04R
ILS OR LOC RWY 13C
ILS OR LOC/DME RWY 31C
RNAV (RNP) X RWY 22L
RNAV (RNP) Y RWY 04R
RNAV (RNP) Y RWY 13C
RNAV (RNP) Y RWY 22L
RNAV (RNP) Y RWY 31C
RNAV (GPS) RWY 04L
RNAV (GPS) RWY 13L
RNAV (GPS) RWY 22R
RNAV (GPS) RWY 31R
RNAV (GPS) Z RWY 04R
RNAV (GPS) Z RWY 13C
RNAV (GPS) Z RWY 22L
RNAV (GPS) Z RWY 31C